GAOFEN-12 03

Last updated on Tue Jul 01 2025 00:02:30 GMT+0000 (Coordinated Universal Time)

1 52912U 22069A 25181.55422164 .00000815 00000+0 11269-3 0 9999 2 52912 97.8690 72.4196 0001519 99.0150 261.1235 14.80702251162604
UTC large
Height (km)
Speed (km/s)
/
Latitude / Longitude
Inclination (degrees)
Orbital Period (minutes)
Azimuth
Elevation
Range (km)
Doppler Factor

Next 0 passes for location: London (51.5072 / 0.1276)

Sorry there are no passes over London.